Location: Feigenhofen
(48.4939°N, 10.7793°E)
Time: 21:26:57
(UTC+00:00)

GP-B - Visible Passes

Search period start: 27 September 2022 00:00
Search period end: 07 October 2022 00:00
Orbit: 630 x 634 km, 89.8° (Epoch: 27 September)

Date Brightness Start Highest point End Pass type
(mag) Time Alt. Az. Time Alt. Az. Time Alt. Az.
27 Sep 3.3 04:00:19 10° S 04:04:44 78° E 04:09:12 10° N visible
28 Sep 6.1 02:46:25 10° ESE 02:49:12 17° ENE 02:51:59 10° NE visible
28 Sep 3.1 04:21:39 10° SSW 04:26:00 58° W 04:30:24 10° N visible
29 Sep 5.3 03:06:27 10° SE 03:10:12 27° ENE 03:13:57 10° NNE visible
30 Sep 4.2 03:27:02 10° SSE 03:31:17 47° E 03:35:34 10° N visible
01 Oct 6.5 02:15:11 10° E 02:15:58 10° ENE 02:16:46 10° ENE visible
01 Oct 3.1 03:48:02 10° S 03:52:29 85° E 03:56:56 10° N visible
02 Oct 5.9 02:33:55 10° ESE 02:36:53 18° ENE 02:39:51 10° NNE visible
02 Oct 3.2 04:09:26 10° SSW 04:13:44 53° W 04:18:07 10° N visible
03 Oct 5.0 02:54:03 10° SE 02:57:53 30° ENE 03:01:45 10° NNE visible
03 Oct 3.9 04:31:13 10° SW 04:35:07 30° W 04:39:04 10° NNW visible
04 Oct 3.9 03:14:42 10° SSE 03:18:59 52° E 03:23:18 10° N visible
05 Oct 6.3 02:02:13 10° E 02:03:37 11° ENE 02:05:02 10° NE visible
05 Oct 3.0 03:35:45 10° S 03:40:11 88° W 03:44:39 10° N visible
06 Oct 5.7 02:21:25 10° ESE 02:24:33 19° ENE 02:27:41 10° NNE visible
06 Oct 3.3 03:57:11 10° SSW 04:01:28 49° W 04:05:47 10° NNW visible
